Aérodrome :
LOGIN :

S'inscrire | Disclaimer

   EN    FR    IT 

 










Légende :    VFR   VFR Marginal   IFR   IFR Intensif   IFR Très Intensif
Visi : 
Plafond : 
>= 8 km
>= 3000ft
5 à 8 km
1000 à 3000 ft
1500m à 5 km
500 à 1000 ft
800 à 1500m
200 à 500 ft
< 800m
< 200 ft
Symboles :   Orages  Brouillard  Fortes neiges  Fortes précipitations  Vent > 20 kt
SIGMETs :   Divers  Orages  Givrage  Turbulence  Onde Orograph.  Cendres Volcan.







- Altitude de l'aérodrome : 124 ft
- Code IATA : AVN
- Voir les cartes d'approche


LFMV - Avignon Caumont

DERNIER METAR :
  • 181800Z AUTO 35022G33KT CAVOK 05/02 Q1020 BECMG 36015KT

METARs EXPIRÉS :
  • 181730Z AUTO 35017KT CAVOK 05/02 Q1021 NOSIG
  • 181700Z AUTO 35015KT 9999 FEW018 05/03 Q1020 NOSIG
  • 181630Z AUTO 33007KT 280V350 CAVOK 04/03 Q1020 NOSIG
  • 181600Z AUTO 31009KT 9999 FEW005 04/03 Q1020 NOSIG
  • 181530Z AUTO 32010KT 9999 SCT006 BKN033 04/03 Q1020 NOSIG

TAF AMD TAF LFMV
Valide du 18 à 16h jusqu'au 19 à 15h UTC


181639Z 1816/1915 33007KT CAVOK
BECMG 1816/1818 36015KT
ATIS : +33 4 90 84 32 84
Pas de NOTAMs connus pour ce terrain.



MET'MAP, la Météo Aéronautique d'un coup d'oeil ! - Copyright ORBIFLY Décembre 2007 - Disclaimer

ORBIFLY MET'MAP TEAM :

Programmation & Développement : Alexandra Zaïnal
Conception & Développement : Baudouin d'Aumeries
Co-Programmation & Développement : Marc-Olivier Méhu
Soutien technique & logistique : Manuel Goepfert

Contact : metmap@orbifly.com




SOURCES & CREDITS :

   NOAA